Terminal Aerodrome Forecast
Issued by NWS

Home | Current Version | Previous Version | Graphics & Text | Print | Product List | Glossary On
Versions: 1 2 3 4 5 6 7 8 9 10 11 12 13 14 15 16 17 18 19 20 21 22 23 24 25 26 27 28 29 30 31 32 33
000
FTUS43 KLOT 042202 AAB
TAFORD
TAF AMD
KORD 042202Z 0422/0524 07008KT P6SM FEW040 SCT070
     FM050000 10005KT P6SM FEW070 SCT250
     FM050600 VRB03KT P6SM SKC
     FM051400 18006KT P6SM SCT040 PROB30 0520/0524 TSRA SCT040CB
      BKN060=

USA.gov is the U.S. government's official web portal to all federal, state and local government web resources and services.